TimeCST,TemperatureF,Dew PointF,Humidity,Sea Level PressureIn,VisibilityMPH,Wind Direction,Wind SpeedMPH,Gust SpeedMPH,PrecipitationIn,Events,Conditions,WindDirDegrees,DateUTC
12:16 AM,44.6,35.6,71,29.71,10.0,NNW,3.5,-,N/A,,Clear,330,2012-12-17 06:16:00
12:35 AM,42.8,35.6,76,29.70,10.0,Calm,Calm,-,N/A,,Clear,0,2012-12-17 06:35:00
12:55 AM,42.8,35.6,76,29.69,10.0,Calm,Calm,-,N/A,,Clear,0,2012-12-17 06:55:00
1:35 AM,41.0,35.6,81,29.70,10.0,NW,4.6,-,N/A,,Clear,320,2012-12-17 07:35:00
1:55 AM,41.0,35.6,81,29.70,10.0,NW,3.5,-,N/A,,Clear,310,2012-12-17 07:55:00
2:15 AM,39.2,35.6,87,29.69,7.0,Calm,Calm,-,N/A,,Clear,0,2012-12-17 08:15:00
2:36 AM,39.2,35.6,87,29.69,5.0,NNW,4.6,-,N/A,,Clear,330,2012-12-17 08:36:00
2:55 AM,39.2,35.6,87,29.69,0.2,NNW,6.9,-,N/A,,Overcast,340,2012-12-17 08:55:00
3:15 AM,39.2,37.4,93,29.69,0.2,NNW,6.9,-,N/A,,Overcast,340,2012-12-17 09:15:00
3:55 AM,39.2,37.4,93,29.70,0.5,NNW,6.9,-,N/A,,Overcast,340,2012-12-17 09:55:00
4:15 AM,39.2,37.4,93,29.70,0.8,NNW,8.1,-,N/A,,Overcast,330,2012-12-17 10:15:00
4:35 AM,39.2,37.4,93,29.70,0.8,NW,8.1,-,N/A,,Overcast,320,2012-12-17 10:35:00
5:15 AM,39.2,37.4,93,29.70,0.8,NNW,5.8,-,N/A,,Overcast,330,2012-12-17 11:15:00
5:35 AM,39.2,37.4,93,29.71,1.5,NW,5.8,-,N/A,,Overcast,320,2012-12-17 11:35:00
5:56 AM,39.2,37.4,93,29.71,3.0,NW,8.1,-,N/A,,Overcast,310,2012-12-17 11:56:00
6:15 AM,39.2,35.6,87,29.72,2.5,NW,5.8,-,N/A,,Overcast,320,2012-12-17 12:15:00
6:35 AM,39.2,35.6,87,29.73,2.0,WNW,8.1,-,N/A,,Overcast,300,2012-12-17 12:35:00
6:55 AM,39.2,35.6,87,29.74,2.0,NW,8.1,-,N/A,,Overcast,310,2012-12-17 12:55:00
7:15 AM,39.2,37.4,93,29.75,4.0,NW,8.1,-,N/A,,Overcast,310,2012-12-17 13:15:00
7:35 AM,39.2,37.4,93,29.75,2.5,NNW,6.9,-,N/A,,Overcast,330,2012-12-17 13:35:00
7:55 AM,39.2,35.6,87,29.76,1.0,NW,6.9,-,N/A,,Overcast,310,2012-12-17 13:55:00
8:35 AM,39.2,35.6,87,29.76,2.5,NNW,4.6,-,N/A,,Overcast,330,2012-12-17 14:35:00
8:55 AM,39.2,35.6,87,29.77,4.0,NNW,6.9,-,N/A,,Overcast,330,2012-12-17 14:55:00
9:15 AM,39.2,35.6,87,29.77,2.5,WNW,8.1,-,N/A,,Overcast,300,2012-12-17 15:15:00
9:36 AM,39.2,35.6,87,29.78,2.0,WNW,8.1,-,N/A,,Overcast,300,2012-12-17 15:36:00
9:55 AM,39.2,35.6,87,29.78,5.0,WNW,5.8,-,N/A,,Overcast,290,2012-12-17 15:55:00
10:15 AM,39.2,35.6,87,29.79,4.0,WNW,9.2,-,N/A,,Overcast,300,2012-12-17 16:15:00
10:35 AM,39.2,35.6,87,29.79,2.5,WNW,8.1,-,N/A,,Overcast,290,2012-12-17 16:35:00
10:55 AM,39.2,35.6,87,29.78,4.0,WNW,6.9,-,N/A,,Overcast,300,2012-12-17 16:55:00
11:15 AM,39.2,35.6,87,29.79,5.0,WNW,9.2,-,N/A,,Overcast,290,2012-12-17 17:15:00
11:35 AM,41.0,35.6,81,29.79,5.0,WNW,8.1,-,N/A,,Overcast,290,2012-12-17 17:35:00
11:55 AM,41.0,35.6,81,29.79,6.0,West,9.2,-,N/A,,Overcast,280,2012-12-17 17:55:00
12:35 PM,39.2,35.6,87,29.79,5.0,NW,9.2,-,N/A,,Overcast,310,2012-12-17 18:35:00
1:15 PM,41.0,35.6,81,29.78,5.0,WNW,6.9,-,N/A,,Overcast,290,2012-12-17 19:15:00
1:35 PM,41.0,35.6,81,29.78,5.0,West,6.9,-,N/A,,Overcast,270,2012-12-17 19:35:00
1:55 PM,42.8,35.6,76,29.78,6.0,West,9.2,-,N/A,,Overcast,280,2012-12-17 19:55:00
2:16 PM,42.8,35.6,76,29.78,6.0,NW,10.4,-,N/A,,Mostly Cloudy,310,2012-12-17 20:16:00
2:35 PM,42.8,33.8,70,29.78,9.0,NW,10.4,-,N/A,,Scattered Clouds,310,2012-12-17 20:35:00
2:55 PM,42.8,33.8,70,29.77,9.0,WNW,3.5,-,N/A,,Partly Cloudy,300,2012-12-17 20:55:00
3:35 PM,44.6,33.8,66,29.76,10.0,WSW,5.8,-,N/A,,Clear,250,2012-12-17 21:35:00
3:55 PM,44.6,33.8,66,29.76,10.0,SW,5.8,-,N/A,,Clear,230,2012-12-17 21:55:00
6:35 PM,37.4,30.2,75,29.78,10.0,South,3.5,-,N/A,,Clear,170,2012-12-18 00:35:00
7:15 PM,37.4,30.2,75,29.79,9.0,SSW,3.5,-,N/A,,Clear,200,2012-12-18 01:15:00
7:35 PM,35.6,30.2,81,29.80,9.0,SSW,4.6,-,N/A,,Clear,200,2012-12-18 01:35:00
7:55 PM,37.4,32.0,81,29.80,8.0,SSW,4.6,-,N/A,,Clear,200,2012-12-18 01:55:00
8:16 PM,37.4,30.2,75,29.80,8.0,South,4.6,-,N/A,,Clear,190,2012-12-18 02:16:00
8:35 PM,37.4,30.2,75,29.81,8.0,South,4.6,-,N/A,,Clear,190,2012-12-18 02:35:00
8:55 PM,35.6,30.2,81,29.80,7.0,South,5.8,-,N/A,,Clear,170,2012-12-18 02:55:00
9:15 PM,35.6,30.2,81,29.81,7.0,South,4.6,-,N/A,,Clear,180,2012-12-18 03:15:00
9:35 PM,35.6,30.2,81,29.80,7.0,South,5.8,-,N/A,,Clear,170,2012-12-18 03:35:00
9:55 PM,37.4,30.2,75,29.80,7.0,South,3.5,-,N/A,,Clear,180,2012-12-18 03:55:00
10:15 PM,35.6,30.2,81,29.80,7.0,South,5.8,-,N/A,,Clear,170,2012-12-18 04:15:00
10:55 PM,33.8,30.2,87,29.79,7.0,SSE,4.6,-,N/A,,Clear,160,2012-12-18 04:55:00
11:15 PM,33.8,28.4,81,29.79,7.0,Calm,Calm,-,N/A,,Clear,0,2012-12-18 05:15:00
11:35 PM,33.8,30.2,87,29.79,9.0,South,3.5,-,N/A,,Clear,180,2012-12-18 05:35:00